Theta_e
299 300 301 301 301 301 301 302 303 303 303 302 303 303 303 303 302 296 291 292 287 279 282 284 284 282 281 280 277 275 278 277 275 271 269 272 266 271 268 270 269 269 266 265 265 265 263 276 274 271 274 276 276 277
299 299 299 300 301 301 301 301 302 302 302 302 302 302 302 302 302 300 291 292 291 282 281 287 287 287 286 285 280 274 278 273 277 271 268 270 263 264 266 264 273 267 271 265 268 268 277 277 277 279 278 277 278 278
297 298 298 299 300 300 301 301 301 301 302 302 302 302 302 302 302 300 294 291 291 285 282 282 282 288 289 287 287 277 276 280 279 280 272 270 265 271 263 265 267 272 274 270 270 273 275 277 279 278 279 279 279 279
296 297 297 298 299 299 300 300 300 301 301 301 301 301 302 302 302 301 294 294 290 286 279 278 284 284 289 288 285 284 283 282 281 280 272 267 265 276 268 271 270 273 273 269 270 275 275 276 277 278 279 279 278 278
294 297 297 298 298 298 299 299 299 300 300 300 300 300 301 301 302 299 297 295 294 286 276 274 278 283 286 286 285 284 283 280 278 273 267 267 272 272 269 274 269 275 275 271 269 278 277 277 279 279 279 278 278 278
292 297 297 297 297 298 298 299 299 299 299 299 299 299 299 299 300 295 286 294 296 293 284 276 280 278 283 284 283 282 282 279 278 276 273 274 278 277 273 269 277 280 278 279 278 281 278 279 279 279 278 278 278 277
293 296 297 297 297 297 297 298 298 298 298 298 298 298 298 298 296 287 285 290 297 294 284 279 276 277 281 280 277 281 282 280 280 280 275 277 276 280 275 269 278 278 279 280 280 279 277 278 278 279 278 278 276 274
294 295 296 296 296 297 297 297 297 297 297 297 297 297 297 297 296 290 293 296 297 287 284 278 275 276 281 279 277 281 281 282 281 280 277 277 279 279 273 277 279 279 279 278 278 279 280 281 276 276 274 272 270 271
293 294 295 296 296 296 296 296 296 296 295 296 296 296 290 287 285 287 297 297 294 288 279 278 273 266 281 281 281 281 283 276 282 278 277 279 275 272 276 278 278 279 278 279 277 275 274 274 277 274 271 267 270 270
294 295 295 296 295 295 295 295 295 295 295 295 291 285 282 285 292 294 289 285 284 284 283 277 268 270 278 275 271 276 279 276 272 276 279 276 275 279 279 277 278 280 280 278 272 271 263 266 270 270 269 269 269 266
293 293 294 294 294 294 294 294 294 294 294 287 283 282 285 292 287 284 279 277 274 272 278 273 274 269 275 268 269 278 273 274 270 271 273 271 269 277 280 279 280 280 278 275 277 276 271 271 270 269 265 264 264 262
290 291 292 292 292 291 291 292 293 290 286 285 286 288 286 283 280 275 274 274 273 269 265 273 269 275 273 274 272 275 271 272 268 268 268 263 274 278 276 278 280 280 276 271 267 267 265 266 264 264 262 260 258 257
288 290 290 291 291 291 291 291 291 292 291 286 281 278 278 275 272 271 266 264 265 260 270 269 269 274 277 278 273 274 270 268 270 269 267 266 273 271 275 272 262 261 263 262 260 260 259 257 256 255 255 255 254 253
289 289 289 289 289 290 290 290 291 291 284 278 275 270 271 270 269 265 264 265 270 269 269 269 272 271 273 273 275 269 272 270 267 266 263 273 268 267 265 258 260 258 258 259 256 256 255 255 253 252 252 251 251 250
287 287 287 287 288 288 289 290 291 288 281 275 273 268 270 264 259 254 254 261 265 266 273 270 269 276 271 272 274 271 266 265 266 262 264 260 258 258 256 255 256 256 254 253 253 252 253 252 251 248 244 245 247 246
285 286 282 287 287 288 288 287 286 284 280 276 273 265 258 261 258 257 256 261 265 271 271 272 270 272 270 270 268 266 265 262 263 260 256 258 256 256 256 256 254 254 254 253 250 251 251 250 250 247 242 243 244 246
283 272 284 284 286 285 285 277 279 277 274 274 268 251 257 257 261 259 260 264 269 274 272 273 269 269 273 269 268 269 263 262 260 260 258 256 257 256 255 254 253 253 251 250 249 249 248 247 247 247 248 247 243 245
269 275 283 283 279 279 263 264 267 269 266 263 265 255 254 252 254 256 260 265 268 273 272 270 271 269 268 264 261 261 257 256 255 253 253 252 252 251 253 251 250 250 250 250 250 247 247 247 249 248 246 245 245 245
276 276 282 282 278 265 264 263 262 259 255 255 259 260 259 254 256 257 257 262 266 267 267 269 268 267 265 258 255 257 256 255 254 254 253 252 253 252 251 250 249 249 248 247 248 248 246 247 249 250 251 251 247 244
282 281 280 279 278 266 257 258 261 258 252 256 257 259 259 258 257 254 256 262 264 268 265 259 254 252 252 252 252 253 255 256 256 255 253 252 251 250 249 249 250 248 246 245 246 248 246 247 248 246 244 244 245 245
275 276 275 269 266 264 261 258 255 257 256 253 255 260 259 259 254 252 254 259 257 252 253 250 250 251 251 251 250 250 253 252 253 252 252 251 250 249 246 245 245 244 245 245 249 249 248 247 245 243 243 243 241 242
269 274 262 268 264 261 260 259 255 257 257 255 258 255 253 253 252 253 255 253 250 247 246 248 249 248 249 250 249 249 249 250 252 252 252 251 248 247 245 244 247 247 249 248 248 249 249 244 243 242 243 244 245 245
269 268 263 261 259 259 256 260 256 255 256 253 254 255 252 252 252 256 252 250 250 250 248 247 247 248 248 250 250 251 250 251 251 250 250 249 248 245 248 245 244 246 245 245 244 243 244 247 246 245 245 246 246 246
263 255 255 254 256 254 254 254 256 256 255 253 254 254 252 251 252 254 248 246 247 249 248 248 249 250 251 251 250 249 248 248 249 249 247 249 248 244 240 240 239 240 242 242 242 243 243 244 247 246 248 248 247 248
256 248 251 249 251 250 250 251 252 253 251 250 250 250 249 249 254 249 248 246 247 246 248 248 249 249 248 250 250 249 246 244 245 243 241 238 238 241 243 241 242 243 241 243 243 243 245 249 251 251 252 251 250 251
244 245 246 245 247 248 247 249 248 247 249 249 247 250 250 253 249 246 246 248 247 247 247 246 245 247 250 248 248 247 245 237 238 243 243 239 241 242 241 243 244 248 244 245 246 247 250 252 251 251 252 252 253 252
245 244 246 248 248 248 249 250 250 249 247 246 245 248 252 247 245 246 248 250 248 247 247 247 245 246 246 247 245 243 244 242 246 247 246 242 244 243 246 248 247 249 247 247 247 248 249 251 253 253 253 251 251 251
242 243 243 245 246 247 247 247 245 243 244 244 246 245 245 244 244 248 249 251 250 249 248 248 248 247 247 248 249 250 251 251 250 248 247 248 248 248 247 247 248 258 251 249 250 249 249 250 251 252 251 251 253 253
242 243 243 246 246 244 241 242 242 242 242 242 245 246 246 250 250 248 250 250 250 250 250 250 252 253 252 252 252 253 253 253 253 253 252 252 253 252 251 249 249 249 248 246 252 256 252 251 250 250 251 252 253 252
242 242 245 246 244 242 241 240 241 241 242 242 242 247 249 249 251 251 250 250 249 249 250 250 251 252 251 251 251 252 252 252 252 251 249 250 251 253 252 251 250 248 245 242 247 249 254 252 252 250 250 248 249 249
242 242 243 244 243 242 241 239 240 241 242 243 243 245 246 247 250 253 252 252 252 253 252 252 252 251 250 250 249 250 251 252 253 252 251 252 252 251 251 252 252 251 248 248 249 249 251 250 248 249 249 248 249 249
242 239 237 238 239 237 233 239 240 241 242 244 244 244 245 247 247 251 252 252 251 251 251 250 250 250 250 251 251 251 253 252 251 252 251 253 253 254 253 253 251 249 250 250 249 250 251 250 250 249 249 248 248 247
243 242 243 244 244 244 244 243 245 246 246 246 246 245 244 246 247 250 252 252 250 249 250 250 250 250 250 250 250 251 251 249 249 255 254 256 255 256 254 248 250 248 247 247 247 247 246 246 247 246 246 246 246 247
Wind_Speed
22 19 18 20 21 19 19 18 21 19 18 17 15 16 20 21 22 8 3 4 5 3 4 5 2 4 4 3 7 4 5 1 2 4 5 5 4 7 3 4 8 8 9 6 3 3 10 9 5 9 7 2 6 6
24 23 20 19 22 20 21 18 17 17 17 17 17 18 18 20 19 13 2 3 3 4 4 2 4 4 3 6 8 2 3 6 6 5 1 3 1 1 3 5 2 3 9 8 11 10 3 8 7 11 6 7 7 7
25 25 23 21 21 22 20 17 18 16 16 17 18 17 17 18 19 17 3 4 4 2 4 1 5 6 3 5 6 8 2 5 4 4 6 3 4 5 5 6 1 4 5 4 5 5 6 10 11 5 8 9 8 9
25 26 24 23 21 18 18 18 16 17 18 15 15 16 15 20 21 19 4 6 4 2 3 6 3 4 5 6 5 4 7 5 5 3 3 4 4 4 4 4 6 7 7 6 3 6 3 9 9 10 10 10 9 8
20 28 27 24 24 20 17 17 16 18 17 13 11 10 10 14 18 13 6 6 7 5 4 3 2 6 5 9 10 7 10 7 4 2 3 4 3 4 1 2 5 8 11 5 8 16 11 8 9 8 10 12 12 12
18 34 25 20 20 19 20 21 18 15 14 14 13 13 12 10 12 3 2 5 11 6 2 3 2 4 7 8 11 8 7 3 4 5 3 4 5 5 4 5 18 22 5 11 13 19 8 11 9 7 11 11 11 10
21 18 22 24 19 20 17 20 19 17 15 15 15 14 12 12 6 3 3 2 16 10 3 2 4 2 1 4 1 2 4 3 4 3 3 4 2 7 4 8 22 6 11 16 15 6 8 13 11 9 9 12 6 4
18 20 22 23 21 18 18 18 15 15 14 13 12 11 11 14 9 5 5 4 7 3 3 4 2 0 4 4 3 3 5 5 4 4 2 5 5 4 8 24 15 13 14 9 14 13 18 15 4 8 4 5 6 7
19 18 25 23 20 18 16 16 16 14 11 11 11 12 0 2 3 2 16 16 5 2 2 3 5 6 2 2 3 2 4 5 4 7 5 7 5 10 17 15 16 22 16 18 7 7 8 10 15 7 7 4 7 9
13 18 17 24 21 18 19 18 18 16 13 6 5 2 4 6 6 12 6 4 5 4 2 2 2 2 3 2 1 3 1 3 4 4 4 6 9 23 8 7 10 17 19 11 5 9 2 6 8 7 11 6 6 3
5 16 18 20 21 19 18 17 16 14 10 2 4 3 1 6 3 3 6 5 3 2 4 5 8 6 3 5 4 3 3 3 4 6 7 5 8 21 16 15 16 17 12 10 12 11 7 6 7 7 5 5 5 6
10 10 14 16 16 15 13 14 15 7 4 5 4 3 2 4 4 5 4 3 5 8 3 6 6 6 4 4 4 5 5 4 6 4 4 4 14 15 10 20 23 20 8 8 5 8 6 6 3 6 7 6 5 6
4 6 7 9 10 12 12 12 14 15 10 3 2 3 4 3 7 8 9 3 3 3 4 3 1 4 3 3 3 5 7 6 4 6 6 9 8 7 13 6 0 3 6 9 6 7 8 7 6 4 7 5 7 7
9 9 8 6 4 8 10 10 12 15 3 4 5 7 5 4 5 6 6 6 5 4 6 4 4 4 3 5 4 5 5 4 6 5 9 11 8 6 4 1 6 5 6 8 8 7 8 8 7 6 7 5 6 6
12 9 8 7 6 4 3 8 12 3 2 3 4 5 5 3 1 2 2 1 2 1 5 3 2 3 3 4 5 3 4 5 6 8 6 3 6 6 2 2 6 7 7 7 5 7 8 7 6 6 4 4 5 5
9 9 5 9 8 9 7 3 1 2 3 4 4 3 1 4 4 2 1 0 2 1 2 2 4 4 6 5 6 8 6 8 6 4 2 3 4 6 5 5 6 6 6 7 7 7 7 6 6 6 3 2 1 3
8 1 4 4 9 9 13 4 1 1 2 2 3 2 2 3 4 4 3 3 1 2 3 2 5 8 2 3 4 4 6 4 2 2 2 3 4 5 5 7 6 8 8 7 5 5 5 4 5 4 5 1 0 2
2 2 4 4 4 4 4 5 4 3 3 3 1 3 3 2 3 2 1 2 1 4 2 3 1 4 4 4 4 1 3 2 4 3 3 3 2 5 5 6 5 6 6 6 6 5 4 4 5 2 2 0 1 1
3 4 9 6 5 5 4 4 3 4 1 1 2 2 2 1 1 1 1 3 1 1 1 1 4 2 1 3 2 2 3 2 1 2 2 5 5 6 6 6 5 5 6 5 4 3 2 2 2 3 2 1 2 1
12 12 10 14 6 3 5 3 2 5 3 1 2 2 3 2 2 2 3 4 2 1 4 4 3 3 3 3 3 4 5 5 1 1 2 2 2 2 3 2 3 4 4 4 4 4 3 2 1 1 2 2 2 1
7 4 9 6 4 6 5 3 4 2 2 3 2 2 2 2 3 4 3 5 6 5 3 3 2 2 2 2 2 3 3 4 2 1 1 2 0 2 1 2 3 2 2 2 3 2 3 2 2 0 1 1 2 3
1 9 3 5 4 3 5 3 3 0 2 1 2 2 3 3 3 4 3 7 5 2 2 3 3 3 4 3 3 3 4 5 3 2 5 7 3 2 0 2 2 2 3 2 2 2 2 2 1 1 1 3 2 2
7 5 4 5 5 5 2 1 3 4 3 1 1 3 3 3 2 3 6 4 2 2 1 2 3 3 4 4 3 3 4 5 3 3 3 2 3 2 3 1 1 3 1 1 1 3 2 2 2 2 2 1 1 2
11 8 7 5 6 3 2 4 2 2 3 4 3 3 2 2 4 4 4 2 2 2 3 5 3 4 1 2 3 3 4 3 2 3 4 3 3 3 1 1 1 1 2 2 3 2 1 2 2 1 1 0 1 1
8 10 7 7 5 5 6 4 4 4 3 3 3 2 2 2 3 5 3 2 3 2 5 6 5 3 2 2 2 2 3 2 1 2 3 2 2 2 3 2 3 4 3 3 1 2 2 2 2 2 2 1 3 4
11 6 6 6 5 5 4 4 4 3 2 3 3 2 2 2 6 4 2 3 3 2 4 4 4 4 3 2 2 2 3 0 2 3 4 2 2 3 2 0 2 4 3 3 3 3 3 2 2 3 3 4 5 4
8 6 4 1 2 3 2 2 1 4 5 5 4 6 3 6 4 2 2 2 3 2 3 3 2 2 3 3 3 3 2 2 2 3 2 3 3 4 3 1 2 4 1 3 2 3 3 3 4 4 4 3 4 4
3 5 6 7 3 4 3 4 5 5 4 4 2 7 5 4 2 3 2 4 5 5 4 2 3 3 3 3 3 4 3 3 4 2 1 1 1 0 1 1 2 6 2 2 3 3 3 4 4 5 5 6 6 4
4 5 3 4 4 6 6 5 3 2 3 2 2 4 3 3 3 2 3 5 5 3 3 4 4 2 0 1 2 3 4 5 5 5 4 2 2 2 2 2 3 3 2 2 6 5 6 6 6 6 8 6 6 4
5 4 4 4 6 5 3 2 3 3 2 1 2 2 2 1 1 2 2 3 4 3 2 2 4 5 5 4 3 3 3 4 5 4 3 3 4 6 5 5 5 4 2 2 3 4 7 3 5 3 3 3 3 4
3 3 2 4 4 2 2 2 2 2 1 2 1 2 1 2 2 3 6 4 4 5 6 6 6 5 5 5 4 5 5 2 5 4 3 5 5 5 5 5 5 4 3 3 4 4 5 4 3 5 6 7 7 7
4 4 3 4 2 2 1 2 1 2 2 3 3 2 2 2 4 3 3 5 4 5 5 4 5 5 5 4 3 3 6 5 5 6 8 7 7 7 6 5 4 3 4 4 4 4 5 6 6 6 7 10 9 8
2 2 3 3 2 2 3 3 1 2 2 2 2 1 1 1 4 1 2 2 1 2 3 3 3 4 5 6 7 6 6 4 8 11 12 13 13 11 6 3 4 2 4 3 3 3 5 7 8 8 8 9 10 10
Wind_Direction
254 245 243 244 237 234 237 237 224 220 212 215 216 207 210 211 203 172 174 176 125 149 266 213 229 139 97 118 141 186 95 316 82 135 148 190 172 209 145 185 177 163 160 200 126 180 260 176 79 176 204 195 178 199
248 247 243 248 243 236 237 217 220 219 221 215 214 215 208 208 208 175 152 160 128 135 230 353 281 290 192 179 125 232 147 162 165 109 209 106 165 39 156 228 170 254 192 181 181 205 226 185 193 217 158 178 203 198
262 244 246 241 242 234 228 226 224 221 221 221 217 221 215 212 198 179 141 138 85 77 289 175 225 245 146 180 168 127 281 175 180 166 159 174 178 126 164 236 153 259 173 209 104 225 215 197 237 231 198 209 213 209
256 255 241 230 230 229 228 218 221 221 212 213 216 218 223 208 197 181 159 160 108 112 216 272 350 213 197 156 172 145 136 119 115 132 127 143 154 170 198 185 186 199 144 171 269 281 213 257 239 235 237 223 236 235
273 258 237 231 227 226 220 208 212 212 204 200 209 203 206 201 204 201 183 179 167 167 191 259 307 235 195 172 172 153 141 133 146 107 109 208 156 106 288 84 252 184 211 172 224 244 223 233 235 225 224 230 223 226
276 247 222 226 224 226 218 215 207 204 193 192 205 202 207 213 203 137 206 187 182 177 210 225 278 196 183 176 172 175 165 129 140 141 191 217 209 139 154 209 246 243 172 215 234 244 220 242 248 226 215 228 230 220
274 230 214 219 218 208 214 212 207 200 196 188 193 196 202 209 200 156 219 217 179 157 196 213 271 301 207 113 124 126 157 178 140 145 211 178 169 173 186 220 239 222 212 230 233 231 258 242 236 236 215 237 220 217
244 238 230 210 208 208 193 187 190 197 191 193 195 200 202 213 206 200 153 37 134 137 187 205 218 303 175 162 168 159 164 177 199 190 179 181 143 198 232 235 248 251 241 233 235 197 230 254 200 227 198 142 195 217
246 229 233 198 188 188 188 178 179 177 184 190 207 208 120 186 181 198 173 174 170 202 211 163 158 232 183 103 120 167 157 182 167 204 204 156 174 214 226 218 214 230 223 237 236 211 215 214 243 227 188 185 213 226
215 231 207 176 175 170 167 166 169 172 200 176 91 148 195 194 189 132 149 177 198 199 202 213 53 171 138 109 353 124 205 200 195 206 132 215 229 243 229 213 228 232 233 223 170 252 189 242 220 216 209 207 207 133
174 165 172 163 156 156 160 162 163 153 139 103 164 198 236 156 86 170 190 176 191 227 208 198 175 145 244 133 168 220 182 181 201 216 192 202 242 242 230 230 235 238 227 198 213 232 184 187 193 197 178 160 137 133
71 113 155 146 139 144 156 165 166 137 153 175 125 106 181 174 176 190 184 129 175 211 252 163 194 166 166 131 129 176 179 191 226 129 159 227 245 241 214 224 235 242 201 180 175 171 144 115 95 120 122 129 121 113
105 125 143 149 159 170 177 188 189 141 133 89 132 170 184 207 199 190 168 230 177 198 187 165 154 122 142 180 171 174 192 214 104 186 217 227 240 223 227 219 183 59 106 121 109 92 99 97 66 76 112 91 100 95
104 102 113 125 168 200 198 200 192 152 131 168 166 181 199 193 217 182 181 178 221 152 158 132 128 149 166 177 177 197 196 135 203 203 224 244 229 247 232 20 117 153 116 116 115 116 113 105 94 76 85 98 111 117
81 81 91 96 109 119 188 197 175 136 149 183 143 201 194 213 53 244 245 5 289 162 124 86 55 160 177 211 200 142 167 209 207 224 228 324 335 325 326 71 112 123 119 108 109 102 100 107 109 102 68 80 90 103
67 69 63 65 63 60 52 78 107 175 194 171 188 106 299 73 309 3 40 349 285 122 74 80 161 197 208 197 185 199 176 210 235 211 238 311 10 7 10 48 65 80 85 100 95 102 110 113 116 120 77 68 120 146
72 97 107 57 63 55 34 71 105 243 352 209 152 50 105 102 169 187 152 196 245 91 205 218 184 214 217 209 219 172 208 216 162 132 9 346 83 101 76 68 72 90 96 94 85 83 94 106 112 96 106 168 180 224
66 272 61 40 58 58 27 34 69 66 75 22 276 323 4 2 97 32 358 6 77 151 168 235 347 228 224 190 240 321 22 37 31 45 13 358 56 74 73 92 74 86 94 93 95 98 114 114 112 123 137 215 57 32
151 96 69 36 76 92 79 12 55 119 199 214 141 67 63 236 290 35 358 326 345 95 18 246 219 217 48 43 326 356 25 12 353 64 30 23 38 82 96 99 105 108 123 128 133 134 138 144 135 149 132 128 135 299
82 71 60 43 56 79 61 0 39 91 128 227 49 61 81 15 311 354 359 17 326 99 54 33 31 13 330 2 350 327 342 338 297 62 57 55 35 51 86 120 125 115 98 82 87 111 93 72 36 142 154 155 115 279
42 51 39 57 56 53 73 30 34 57 108 78 305 32 81 46 33 15 9 335 60 33 55 20 12 327 303 284 327 298 328 340 358 300 226 137 182 93 75 58 108 92 100 112 124 112 113 165 216 207 135 227 221 237
355 56 55 22 81 66 79 38 116 85 73 109 63 48 36 44 22 16 313 53 52 21 359 324 334 322 329 355 336 346 311 311 334 8 57 106 122 94 19 198 109 123 117 162 148 157 165 222 187 186 183 268 258 262
34 33 53 20 82 45 50 334 76 357 79 16 22 70 36 34 356 311 76 66 81 39 296 291 290 277 280 311 313 348 2 356 20 29 46 68 75 73 91 69 93 119 112 304 130 161 189 209 209 196 238 271 24 358
34 45 28 44 19 59 10 29 40 63 60 41 44 85 43 360 326 65 75 41 297 320 347 336 315 319 291 351 17 356 350 339 12 37 27 79 76 17 11 272 270 233 194 169 157 173 198 224 219 197 203 86 344 296
69 6 9 14 14 25 36 26 12 48 63 359 84 47 358 311 77 59 61 326 331 355 1 342 347 359 344 325 338 346 6 15 62 60 316 108 127 10 5 319 273 240 167 104 170 186 237 208 209 222 239 236 270 286
68 351 33 350 3 34 356 50 31 14 2 57 25 330 319 47 60 51 5 325 322 338 347 342 332 334 14 25 337 356 309 140 97 60 301 166 150 139 187 7 347 318 208 186 152 204 228 218 222 236 249 259 268 280
52 351 348 122 317 287 32 49 48 53 46 25 349 349 23 62 54 326 332 33 331 318 290 286 254 268 296 319 299 286 292 201 215 206 249 213 211 199 161 150 299 256 272 199 204 199 228 255 258 251 259 257 242 245
82 28 12 335 18 359 42 42 35 27 360 348 281 32 66 39 336 333 332 347 332 310 295 278 236 241 273 275 295 310 304 261 242 248 310 325 359 52 56 302 287 313 316 244 227 222 215 233 246 254 253 259 270 245
33 342 300 10 46 50 42 27 38 34 344 310 32 65 71 48 347 325 317 327 310 309 5 360 0 343 262 334 338 2 357 7 28 33 21 352 341 315 340 300 293 296 304 303 293 279 237 229 233 236 245 250 262 263
359 353 343 29 49 34 0 351 350 342 319 355 301 122 94 32 12 299 313 340 9 8 340 337 352 16 17 13 351 11 21 35 43 34 343 331 317 313 312 313 314 306 309 332 300 300 304 321 322 329 312 299 280 279
323 337 41 42 72 20 354 331 277 263 285 12 5 66 120 246 286 55 35 7 10 24 35 33 39 29 24 16 5 348 351 359 2 335 281 283 282 287 294 300 297 286 272 270 276 272 278 283 246 272 281 282 284 282
352 48 81 63 350 278 27 42 7 55 2 46 17 0 352 48 49 29 357 357 15 23 12 14 9 344 338 317 288 265 275 291 310 323 316 313 308 304 291 288 286 288 282 275 263 269 278 282 289 281 281 284 280 271
359 6 30 51 28 34 16 335 187 114 83 77 51 27 76 88 85 228 312 32 233 274 303 302 287 287 302 308 300 300 293 285 298 307 313 310 309 307 313 289 283 292 301 290 289 286 285 282 281 278 275 269 274 278